Time,TemperatureF,DewpointF,PressureIn,WindDirection,WindDirectionDegrees,WindSpeedMPH,WindSpeedGustMPH,Humidity,HourlyPrecipIn,Conditions,Clouds,dailyrainin,SoftwareType,DateUTC
2013-04-11 00:00:00,34.3,18.5,29.88,East,94,4.0,5.0,52,0.00,,,0.00,Wunderground v.1.13,2013-04-11 04:00:00,
2013-04-11 00:30:00,33.5,18.6,29.91,ESE,123,3.0,4.0,54,0.00,,,0.00,Wunderground v.1.13,2013-04-11 04:30:00,
2013-04-11 01:00:00,33.0,19.0,29.91,ESE,109,2.0,2.0,56,0.00,,,0.00,Wunderground v.1.13,2013-04-11 05:00:00,
2013-04-11 01:30:00,32.6,19.8,29.91,SE,140,5.0,5.0,59,0.00,,,0.00,Wunderground v.1.13,2013-04-11 05:30:00,
2013-04-11 02:00:00,31.7,19.8,29.91,SSE,150,5.0,5.0,61,0.00,,,0.00,Wunderground v.1.13,2013-04-11 06:00:00,
2013-04-11 02:30:00,30.0,17.4,29.90,ESE,117,5.0,5.0,59,0.00,,,0.00,Wunderground v.1.13,2013-04-11 06:30:00,
2013-04-11 03:00:00,29.0,15.7,29.92,SE,132,3.0,3.0,57,0.00,,,0.00,Wunderground v.1.13,2013-04-11 07:00:00,
2013-04-11 03:30:00,28.5,14.8,29.94,SE,134,3.0,3.0,56,0.00,,,0.00,Wunderground v.1.13,2013-04-11 07:30:00,
2013-04-11 04:00:00,27.9,13.4,29.95,SE,130,4.0,4.0,54,0.00,,,0.00,Wunderground v.1.13,2013-04-11 08:00:00,
2013-04-11 04:30:00,27.1,12.2,29.95,SE,140,2.0,5.0,53,0.00,,,0.00,Wunderground v.1.13,2013-04-11 08:30:00,
2013-04-11 05:00:00,26.2,11.4,29.95,SSE,150,2.0,3.0,53,0.00,,,0.00,Wunderground v.1.13,2013-04-11 09:00:00,
2013-04-11 05:30:00,25.5,10.7,29.95,SE,126,3.0,3.0,53,0.00,,,0.00,Wunderground v.1.13,2013-04-11 09:30:00,
2013-04-11 06:00:00,24.8,10.1,29.96,SSE,151,4.0,4.0,53,0.00,,,0.00,Wunderground v.1.13,2013-04-11 10:00:00,
2013-04-11 06:30:00,24.4,10.1,29.97,SSE,149,2.0,7.0,54,0.00,,,0.00,Wunderground v.1.13,2013-04-11 10:30:00,
2013-04-11 07:00:00,24.6,10.7,29.98,ESE,109,4.0,4.0,55,0.00,,,0.00,Wunderground v.1.13,2013-04-11 11:00:00,
2013-04-11 07:30:00,25.2,10.4,29.99,SE,146,5.0,5.0,53,0.00,,,0.00,Wunderground v.1.13,2013-04-11 11:30:00,
2013-04-11 08:00:00,25.9,11.5,29.99,NNE,19,4.0,4.0,54,0.00,,,0.00,Wunderground v.1.13,2013-04-11 12:00:00,
2013-04-11 08:30:00,26.9,11.6,29.99,ESE,109,5.0,8.0,52,0.00,,,0.00,Wunderground v.1.13,2013-04-11 12:30:00,
2013-04-11 09:00:00,28.3,12.0,29.99,SSE,148,6.0,6.0,50,0.00,,,0.00,Wunderground v.1.13,2013-04-11 13:00:00,
2013-04-11 09:30:00,29.4,12.1,30.00,SE,139,6.0,6.0,48,0.00,,,0.00,Wunderground v.1.13,2013-04-11 13:30:00,
2013-04-11 10:00:00,30.1,12.3,30.00,ESE,119,7.0,10.0,47,0.00,,,0.00,Wunderground v.1.13,2013-04-11 14:00:00,
2013-04-11 10:30:00,31.4,13.5,30.00,SE,140,6.0,6.0,47,0.00,,,0.00,Wunderground v.1.13,2013-04-11 14:30:00,
2013-04-11 11:00:00,31.7,11.7,30.01,ESE,103,7.0,10.0,43,0.00,,,0.00,Wunderground v.1.13,2013-04-11 15:00:00,
2013-04-11 11:30:00,32.3,12.3,30.02,SE,127,7.0,12.0,43,0.00,,,0.00,Wunderground v.1.13,2013-04-11 15:30:00,
2013-04-11 12:00:00,32.5,12.5,30.02,East,97,6.0,8.0,43,0.00,,,0.00,Wunderground v.1.13,2013-04-11 16:00:00,
2013-04-11 12:30:00,33.0,12.4,30.02,ENE,68,7.0,7.0,42,0.00,,,0.00,Wunderground v.1.13,2013-04-11 16:30:00,
2013-04-11 13:00:00,33.9,13.2,30.02,ESE,110,6.0,9.0,42,0.00,,,0.00,Wunderground v.1.13,2013-04-11 17:00:00,
2013-04-11 13:30:00,33.9,12.1,30.03,East,94,8.0,8.0,40,0.00,,,0.00,Wunderground v.1.13,2013-04-11 17:30:00,
2013-04-11 14:00:00,34.6,13.3,30.04,SSE,155,9.0,9.0,41,0.00,,,0.00,Wunderground v.1.13,2013-04-11 18:00:00,
2013-04-11 14:30:00,35.6,13.6,30.04,East,93,6.0,6.0,40,0.00,,,0.00,Wunderground v.1.13,2013-04-11 18:30:00,
2013-04-11 15:00:00,35.8,13.8,30.04,SE,133,6.0,6.0,40,0.00,,,0.00,Wunderground v.1.13,2013-04-11 19:00:00,
2013-04-11 15:30:00,35.7,12.5,30.04,SSE,167,7.0,9.0,38,0.00,,,0.00,Wunderground v.1.13,2013-04-11 19:30:00,
2013-04-11 16:00:00,36.0,12.8,30.04,SSE,149,7.0,7.0,38,0.00,,,0.00,Wunderground v.1.13,2013-04-11 20:00:00,
2013-04-11 16:30:00,35.7,11.9,30.05,SSE,166,7.0,7.0,37,0.00,,,0.00,Wunderground v.1.13,2013-04-11 20:30:00,
2013-04-11 17:00:00,35.6,12.5,30.06,SSE,163,7.0,7.0,38,0.00,,,0.00,Wunderground v.1.13,2013-04-11 21:00:00,
2013-04-11 17:30:00,35.0,13.1,30.07,East,97,7.0,7.0,40,0.00,,,0.00,Wunderground v.1.13,2013-04-11 21:30:00,
2013-04-11 18:00:00,34.9,14.1,30.08,SSE,167,5.0,8.0,42,0.00,,,0.00,Wunderground v.1.13,2013-04-11 22:00:00,
2013-04-11 18:30:00,33.8,14.7,30.10,SE,137,4.0,4.0,45,0.00,,,0.00,Wunderground v.1.13,2013-04-11 22:30:00,
2013-04-11 19:00:00,32.3,14.8,30.11,SSE,163,3.0,3.0,48,0.00,,,0.00,Wunderground v.1.13,2013-04-11 23:00:00,
2013-04-11 19:30:00,31.3,14.8,30.12,ESE,109,3.0,3.0,50,0.00,,,0.00,Wunderground v.1.13,2013-04-11 23:30:00,
2013-04-11 20:00:00,30.3,15.2,30.13,SE,134,2.0,2.0,53,0.00,,,0.00,Wunderground v.1.13,2013-04-12 00:00:00,
2013-04-11 21:00:00,28.9,15.6,30.16,ESE,105,1.0,2.0,57,0.00,,,0.00,Wunderground v.1.13,2013-04-12 01:00:00,
2013-04-11 21:30:00,28.3,15.4,30.17,East,96,0.0,3.0,58,0.00,,,0.00,Wunderground v.1.13,2013-04-12 01:30:00,
2013-04-11 22:00:00,28.0,15.9,30.18,East,92,1.0,5.0,60,0.00,,,0.00,Wunderground v.1.13,2013-04-12 02:00:00,
2013-04-11 22:30:00,28.1,16.0,30.18,East,82,1.0,1.0,60,0.00,,,0.00,Wunderground v.1.13,2013-04-12 02:30:00,
2013-04-11 23:00:00,27.6,15.9,30.19,ESE,115,1.0,1.0,61,0.00,,,0.00,Wunderground v.1.13,2013-04-12 03:00:00,
2013-04-11 23:30:00,26.9,15.6,30.19,ESE,122,1.0,1.0,62,0.00,,,0.00,Wunderground v.1.13,2013-04-12 03:30:00,